Location: Bishop�s Knoyle
(51.0728°N, 2.1714°W)
Time: 02:04:03
(UTC+00:00)

CRYOSAT 2 - Pass Details

Date: 18 September 2020
Orbit: 713 x 725 km, 92.0° (Epoch: 30 October)

Event Time Altitude Azimuth Distance (km) Brightness Sun altitude
Rises 20:49:38 0° 5° (N) 3,155 8.1 -23.5°
Reaches altitude 10° 20:51:56 10° 8° (N) 2,228 7.2 -23.8°
Maximum altitude 20:56:52 74° 93° (E) 756 4.2 -24.4°
Enters shadow 20:56:55 74° 99° (E) 756 4.2 -24.4°
